Flag Weather past 2 weeks in Larvik, Norway

Now
30 °F

Clear.


Feels Like: 23 °F
Forecast: 37 / 39 °F
Wind: 8 mph from North

Location: Torp

Current Time: Nov 26, 2014 at 9:10:27 AM

Latest Report: Nov 26, 2014 at 8:20 AM


Visibility: 10 mi

Pressure: 30.30 "Hg

Humidity: 100%

Dew point: 30 °F

Location of LarvikLocation

Historic Weather in Larvik — Graph

°F

Larvik temperature yesterday

Maximum temperature yesterday: 48 °F (at 1:50 PM)
Minimum temperature yesterday: 32 °F (at 9:50 PM)
Average temperature yesterday: 38 °F

Past Weeks' High & Low Weather Summary

 TemperatureHumidityPressure
High48 °F (Nov 25, 1:50 PM)100% (Nov 11, 7:20 AM)30.48 "Hg (Nov 11, 7:20 AM)
Low28 °F (Nov 22, 6:20 AM)58% (Nov 25, 1:50 PM)29.65 "Hg (Nov 24, 7:20 AM)
Average40 °F92%30.17 "Hg
* Reported Nov 11 7:20 AM — Nov 26 7:50 AM, Larvik, Weather by CustomWeather, © 2014

Note: Actual official high and low records may vary slightly from our data, if they occured in-between our weather recording intervals... More about our weather records

Advertising

Larvik weather history for previous 24 hours

 ConditionsComfort  
Time TempWeatherWind HumidityBarometerVisibility
7:50 AM
Nov 26
30 °FClear.8 mph93%30.30 "Hg10 mi
7:20 AM30 °FClear.8 mph93%30.27 "Hg10 mi
6:50 AM30 °FClear.9 mph93%30.27 "Hg10 mi
6:20 AM30 °FClear.10 mph93%30.27 "Hg10 mi
5:50 AM30 °FClear.7 mph93%30.27 "Hg10 mi
5:20 AM30 °FChilly.7 mph93%30.27 "HgN/A
4:50 AM30 °FChilly.7 mph93%30.27 "HgN/A
4:20 AM30 °FChilly.5 mph100%30.27 "HgN/A
3:50 AM32 °FChilly.6 mph93%30.27 "HgN/A
3:20 AM32 °FChilly.6 mph93%30.27 "HgN/A
2:50 AM30 °FChilly.6 mph100%30.27 "HgN/A
2:20 AM32 °FChilly.6 mph93%30.27 "HgN/A
1:50 AM32 °FChilly.7 mph93%30.27 "HgN/A
1:20 AM32 °FChilly.5 mph93%30.27 "HgN/A
12:50 AM32 °FChilly.5 mph93%30.27 "HgN/A
12:20 AM34 °FPassing clouds.2 mph93%30.27 "HgN/A
11:50 PM
Nov 25
34 °FPassing clouds.5 mph93%30.27 "HgN/A
11:20 PM34 °FPassing clouds.6 mph93%30.24 "HgN/A
10:50 PM34 °FClear.5 mph87%30.24 "Hg10 mi
10:20 PM34 °FClear.5 mph100%30.24 "Hg10 mi
9:50 PM32 °FClear.5 mph87%30.24 "Hg10 mi
9:20 PM36 °FClear.2 mph93%30.24 "Hg10 mi
8:50 PM37 °FClear.No wind87%30.24 "Hg10 mi
8:20 PM37 °FClear.No wind87%30.21 "Hg10 mi
7:50 PM37 °FClear.No wind87%30.21 "Hg10 mi
7:20 PM36 °FClear.1 mph93%30.21 "Hg10 mi
6:50 PM36 °FClear.3 mph93%30.21 "Hg10 mi
6:20 PM37 °FClear.1 mph87%30.21 "Hg10 mi
5:50 PM37 °FClear.3 mph87%30.21 "Hg10 mi
5:20 PM37 °FClear.No wind87%30.18 "Hg10 mi
4:50 PM39 °FClear.3 mph81%30.18 "Hg10 mi
4:20 PM37 °FClear.2 mph87%30.18 "Hg10 mi
3:50 PM37 °FClear.2 mph81%30.18 "Hg10 mi
3:20 PM41 °FSunny.3 mph81%30.18 "Hg10 mi
2:50 PM45 °FSunny.5 mph71%30.18 "Hg10 mi
2:20 PM45 °FSunny.9 mph71%30.18 "Hg10 mi
1:50 PM48 °FSunny.No wind58%30.18 "Hg10 mi
1:20 PM46 °FSunny.1 mph66%30.18 "Hg10 mi
12:50 PM45 °FSunny.5 mph66%30.18 "Hg10 mi
12:20 PM43 °FSunny.6 mph71%30.18 "Hg10 mi
11:50 AM45 °FSunny.2 mph71%30.18 "Hg10 mi
11:20 AM43 °FSunny.7 mph66%30.18 "Hg10 mi
10:50 AM41 °FSunny.3 mph70%30.18 "Hg10 mi
10:20 AM41 °FSunny.2 mph66%30.18 "Hg10 mi
9:50 AM39 °FPassing clouds.3 mph70%30.18 "HgN/A
9:20 AM39 °FSunny.6 mph70%30.18 "Hg10 mi
Weather by CustomWeather, © 2014

See weather overviewHow to use our weather pages